Pellston, MI

11:12 AM EDT on September 28, 2016 (GMT -0400)
Pellston Regional Airport Of Emmet County

Weather History for KPLN - November, 2013

Change the Weather History Date:

Thursday, November 7, 2013

  Actual Average Record
Temperature  
Mean Temperature 36 °F -  
Max Temperature 39 °F 44 °F 60 °F (1949)
Min Temperature 33 °F 28 °F 2 °F (1991)
Degree Days  
Heating Degree Days 29    
Moisture  
Dew Point 30 °F    
Average Humidity 78    
Maximum Humidity 93    
Minimum Humidity 65    
Precipitation  
Precipitation 0.07 in - - ()
Sea Level Pressure  
Sea Level Pressure 30.02 in    
Wind  
Wind Speed 9 mph (WNW)    
Max Wind Speed 16 mph    
Max Gust Speed 24 mph    
Visibility 8 miles    
Events Snow    
Averages and records for this station are not official NWS values.
T = Trace of Precipitation, MM = Missing Value Source: NWS Daily Summary

Daily Weather History Graph

Daily Weather History Graph

Search for Another Location

Airport or City:

Trip Planner

Search our weather history database for the weather conditions in past years. The results will help you decide how hot, cold, wet, or windy it might be!

Date:

Astronomy

Nov. 07, 2013 Rise Set
Actual Time 7:27 AM EST 5:17 PM EST
Civil Twilight 6:56 AM EST 5:49 PM EST
Nautical Twilight 6:20 AM EST 6:24 PM EST
Astronomical Twilight 5:45 AM EST 6:59 PM EST
Moon 11:38 AM EST (11/7) 9:26 PM EST (11/7)
Length of Visible Light 10h 52m
Length of Day
9h 49m
Waxing Crescent, 22% of the Moon is Illuminated
Nov 7
Waxing Crescent
Nov 10
First Quarter
Nov 17
Full
Nov 25
Last Quarter
Dec 2
New

Hourly Weather History & Observations

Time (EST) Temp. Windchill Dew Point Humidity Pressure Visibility Wind Dir Wind Speed Gust Speed Precip Events Conditions
12:54 AM 37.0 °F 31.0 °F 28.9 °F 73% 29.99 in 10.0 mi WNW 8.1 mph - N/A   Overcast
1:54 AM 37.0 °F 31.0 °F 28.9 °F 73% 29.99 in 10.0 mi West 8.1 mph - N/A   Overcast
2:18 AM 37.4 °F 32.8 °F 28.4 °F 70% 29.97 in 10.0 mi West 5.8 mph - 0.00 in   Overcast
2:28 AM 37.4 °F 32.1 °F 28.4 °F 70% 29.97 in 10.0 mi WNW 6.9 mph - 0.00 in   Overcast
2:54 AM 37.0 °F 31.0 °F 28.9 °F 73% 30.00 in 10.0 mi WNW 8.1 mph - 0.00 in   Overcast
3:54 AM 37.0 °F 29.8 °F 28.9 °F 73% 29.99 in 10.0 mi WNW 10.4 mph - N/A   Overcast
4:12 AM 37.4 °F 30.8 °F 28.4 °F 70% 29.97 in 10.0 mi WNW 9.2 mph - 0.00 in   Overcast
4:38 AM 37.4 °F 30.3 °F 28.4 °F 70% 29.98 in 10.0 mi WNW 10.4 mph 19.6 mph 0.00 in   Overcast
4:54 AM 37.0 °F 29.8 °F 28.0 °F 70% 30.00 in 10.0 mi WNW 10.4 mph 18.4 mph 0.00 in   Overcast
5:54 AM 37.0 °F 31.0 °F 28.0 °F 70% 30.00 in 10.0 mi WNW 8.1 mph - N/A   Overcast
6:54 AM 37.9 °F 32.1 °F 28.0 °F 68% 30.01 in 10.0 mi WNW 8.1 mph - N/A   Overcast
7:54 AM 37.9 °F 33.5 °F 28.9 °F 70% 30.02 in 10.0 mi West 5.8 mph - 0.00 in   Overcast
8:54 AM 37.9 °F 30.9 °F 28.0 °F 68% 30.03 in 10.0 mi WNW 10.4 mph 18.4 mph N/A   Overcast
9:54 AM 39.0 °F 30.3 °F 28.0 °F 65% 30.04 in 10.0 mi NW 16.1 mph 20.7 mph N/A   Overcast
10:23 AM 35.6 °F 27.5 °F 30.2 °F 81% 30.02 in 3.0 mi West 11.5 mph - 0.01 in Snow Light Snow
10:51 AM 35.6 °F 31.7 °F 32.0 °F 87% 30.02 in 9.0 mi WSW 4.6 mph - 0.01 in   Overcast
10:54 AM 37.0 °F 32.4 °F 32.0 °F 82% 30.04 in 10.0 mi WSW 5.8 mph - 0.01 in   Overcast
11:32 AM 37.4 °F 28.9 °F 28.4 °F 70% 30.02 in 2.5 mi West 13.8 mph 19.6 mph 0.01 in Snow Light Snow
11:40 AM 35.6 °F 26.6 °F 30.2 °F 81% 30.03 in 1.2 mi WNW 13.8 mph 20.7 mph 0.02 in Snow Light Snow
11:51 AM 33.8 °F 24.8 °F 30.2 °F 87% 30.03 in 0.8 mi West 12.7 mph 19.6 mph 0.03 in Snow Light Snow
11:54 AM 33.1 °F 24.9 °F 30.9 °F 92% 30.06 in 0.8 mi West 10.4 mph 19.6 mph 0.03 in Snow Light Snow
12:01 PM 33.8 °F 27.7 °F 30.2 °F 87% 30.03 in 1.0 mi West 6.9 mph - 0.00 in Snow Light Snow
12:05 PM 33.8 °F 28.6 °F 32.0 °F 93% 30.03 in 4.0 mi WSW 5.8 mph - 0.00 in Snow Light Snow
12:18 PM 35.6 °F 32.8 °F 32.0 °F 87% 30.02 in 10.0 mi West 3.5 mph - 0.00 in   Overcast
12:54 PM 36.0 °F 30.3 °F 32.0 °F 86% 30.04 in 9.0 mi WNW 6.9 mph - 0.01 in   Overcast
1:47 PM 35.6 °F 27.5 °F 30.2 °F 81% 30.01 in 2.0 mi WNW 11.5 mph 24.2 mph 0.00 in Snow Light Snow
1:54 PM 35.1 °F 29.3 °F 30.9 °F 85% 30.03 in 3.0 mi WNW 6.9 mph - 0.00 in Snow Light Snow
2:05 PM 35.6 °F 30.7 °F 30.2 °F 81% 30.01 in 8.0 mi West 5.8 mph - 0.00 in   Overcast
2:54 PM 37.9 °F 32.1 °F 30.0 °F 73% 30.02 in 9.0 mi WNW 8.1 mph - 0.00 in   Overcast
3:54 PM 37.0 °F 31.6 °F 28.9 °F 73% 30.02 in 7.0 mi WNW 6.9 mph - 0.01 in Snow Light Snow
4:54 PM 37.0 °F 31.0 °F 27.0 °F 67% 30.03 in 10.0 mi WNW 8.1 mph - 0.00 in   Overcast
5:23 PM 33.8 °F 24.8 °F 30.2 °F 87% 30.01 in 5.0 mi NW 12.7 mph 21.9 mph 0.00 in Snow Light Snow
5:46 PM 35.6 °F 31.7 °F 30.2 °F 81% 30.02 in 10.0 mi West 4.6 mph - 0.00 in   Mostly Cloudy
5:54 PM 35.1 °F 29.3 °F 30.0 °F 82% 30.04 in 10.0 mi WNW 6.9 mph - 0.00 in   Mostly Cloudy
6:54 PM 36.0 °F 26.7 °F 28.9 °F 76% 30.05 in 9.0 mi NW 15.0 mph - 0.00 in   Overcast
7:08 PM 35.6 °F 28.6 °F 30.2 °F 81% 30.03 in 6.0 mi NW 9.2 mph 21.9 mph 0.00 in Snow Light Snow
7:39 PM 33.8 °F 27.0 °F 30.2 °F 87% 30.03 in 10.0 mi NNW 8.1 mph - 0.00 in   Mostly Cloudy
7:52 PM 33.8 °F 24.3 °F 30.2 °F 87% 30.04 in 4.0 mi NW 13.8 mph 18.4 mph 0.00 in Snow Light Snow
7:54 PM 34.0 °F 24.2 °F 30.0 °F 85% 30.06 in 3.0 mi NW 15.0 mph 20.7 mph 0.00 in Snow Light Snow
8:25 PM 33.8 °F 27.0 °F 30.2 °F 87% 30.04 in 10.0 mi NW 8.1 mph - 0.01 in   Overcast
8:54 PM 35.1 °F 27.4 °F 28.0 °F 76% 30.06 in 10.0 mi WNW 10.4 mph - 0.01 in   Overcast
9:54 PM 36.0 °F 28.5 °F 28.0 °F 73% 30.06 in 10.0 mi WNW 10.4 mph - N/A   Overcast
10:54 PM 34.0 °F 28.8 °F 28.9 °F 82% 30.07 in 10.0 mi WNW 5.8 mph - 0.00 in   Partly Cloudy
11:54 PM 35.1 °F 26.9 °F 28.9 °F 78% 30.07 in 10.0 mi WNW 11.5 mph - N/A   Mostly Cloudy